Ottumwa, IA

12:04 AM CDT on March 27, 2017 (GMT -0500)
Ottumwa Industrial

Weather History for KOTM - June, 2012

Change the Weather History Date:

Wednesday, June 27, 2012

  Actual Average Record
Temperature  
Mean Temperature 81 °F 74 °F  
Max Temperature 95 °F 85 °F 101 °F (1934)
Min Temperature 67 °F 64 °F 48 °F (1938)
Degree Days  
Heating Degree Days 0 0  
Month to date heating degree days 13 19  
Since 1 June heating degree days 13 19  
Since 1 July heating degree days 5038 6315  
Cooling Degree Days 16 9  
Month to date cooling degree days 185 172  
Year to date cooling degree days 339 236  
Since 1 June cooling degree days 185 172  
Growing Degree Days 30 (Base 50)    
Moisture  
Dew Point 62 °F    
Average Humidity 54    
Maximum Humidity 65    
Minimum Humidity 43    
Precipitation  
Precipitation 0.00 in 0.16 in 1.39 in (1984)
Month to date precipitation 3.23 4.60  
Year to date precipitation 14.58 17.13  
Sea Level Pressure  
Sea Level Pressure 29.78 in    
Wind  
Wind Speed 13 mph (South)    
Max Wind Speed 21 mph    
Max Gust Speed 29 mph    
Visibility 10 miles    
Events      
T = Trace of Precipitation, MM = Missing Value Source: NWS Daily Summary

Daily Weather History Graph

Daily Weather History Graph

Search for Another Location

Airport or City:

Trip Planner

Search our weather history database for the weather conditions in past years. The results will help you decide how hot, cold, wet, or windy it might be!

Date:

Astronomy

Jun. 27, 2012 Rise Set
Actual Time 5:39 AM CDT 8:46 PM CDT
Civil Twilight 5:05 AM CDT 9:20 PM CDT
Nautical Twilight 4:22 AM CDT 10:03 PM CDT
Astronomical Twilight 3:31 AM CDT 10:54 PM CDT
Moon 2:09 PM CDT 12:41 AM CDT
Length of Visible Light 16h 14m
Length of Day
15h 06m
First Quarter, 56% of the Moon is Illuminated
Jun 27
First Quarter
Jul 3
Full
Jul 10
Last Quarter
Jul 18
New
Jul 26
First Quarter

Hourly Weather History & Observations

Time (CDT) Temp. Heat Index Dew Point Humidity Pressure Visibility Wind Dir Wind Speed Gust Speed Precip Events Conditions
12:53 AM 70.0 °F - 54.0 °F 57% 29.83 in 10.0 mi SSE 12.7 mph 19.6 mph N/A   Clear
1:53 AM 69.1 °F - 53.1 °F 57% 29.83 in 10.0 mi SSE 13.8 mph - N/A   Clear
2:53 AM 68.0 °F - 53.1 °F 59% 29.83 in 10.0 mi SSE 13.8 mph 20.7 mph N/A   Clear
3:53 AM 68.0 °F - 52.0 °F 56% 29.82 in 10.0 mi SSE 10.4 mph - N/A   Clear
4:53 AM 68.0 °F - 51.1 °F 55% 29.82 in 10.0 mi South 13.8 mph 20.7 mph N/A   Clear
5:53 AM 66.9 °F - 51.1 °F 57% 29.82 in 10.0 mi South 12.7 mph - N/A   Clear
6:53 AM 69.1 °F - 52.0 °F 54% 29.83 in 10.0 mi South 12.7 mph 19.6 mph N/A   Clear
7:53 AM 72.0 °F - 53.1 °F 51% 29.83 in 10.0 mi South 15.0 mph - N/A   Clear
8:53 AM 75.0 °F - 55.0 °F 50% 29.84 in 10.0 mi South 12.7 mph 21.9 mph N/A   Clear
9:53 AM 80.1 °F 80.6 °F 57.9 °F 47% 29.82 in 10.0 mi South 15.0 mph 21.9 mph N/A   Clear
10:53 AM 82.9 °F 83.2 °F 60.1 °F 46% 29.80 in 10.0 mi South 17.3 mph 26.5 mph N/A   Clear
11:53 AM 86.0 °F 87.3 °F 64.0 °F 48% 29.79 in 10.0 mi South 15.0 mph 23.0 mph N/A   Clear
12:53 PM 89.1 °F 91.3 °F 66.0 °F 46% 29.77 in 10.0 mi South 13.8 mph 26.5 mph N/A   Clear
1:53 PM 91.9 °F 95.9 °F 68.0 °F 45% 29.75 in 10.0 mi SSW 15.0 mph 25.3 mph N/A   Clear
2:53 PM 93.9 °F 98.6 °F 68.0 °F 43% 29.75 in 10.0 mi SSW 17.3 mph 23.0 mph N/A   Clear
3:53 PM 95.0 °F 100.7 °F 69.1 °F 43% 29.74 in 10.0 mi SW 13.8 mph 20.7 mph N/A   Clear
4:53 PM 93.9 °F 100.3 °F 70.0 °F 46% 29.73 in 10.0 mi SSW 12.7 mph 19.6 mph N/A   Clear
5:53 PM 93.9 °F 100.8 °F 71.1 °F 47% 29.73 in 10.0 mi SSW 10.4 mph - N/A   Clear
6:53 PM 91.9 °F 99.5 °F 72.0 °F 52% 29.73 in 10.0 mi SSW 10.4 mph - N/A   Clear
7:53 PM 89.1 °F 96.0 °F 72.0 °F 57% 29.73 in 10.0 mi SSW 8.1 mph - N/A   Clear
8:53 PM 84.9 °F 89.4 °F 70.0 °F 61% 29.74 in 10.0 mi SSW 8.1 mph - N/A   Clear
9:53 PM 82.9 °F 87.0 °F 70.0 °F 65% 29.75 in 10.0 mi SSW 8.1 mph - N/A   Clear
10:53 PM 84.9 °F 88.2 °F 68.0 °F 57% 29.75 in 10.0 mi SSW 15.0 mph 23.0 mph N/A   Clear
11:53 PM 84.0 °F 86.5 °F 66.9 °F 56% 29.77 in 10.0 mi SSW 9.2 mph - N/A   Clear